Location: Unspecified
(52.0178°N, 0.0000°E)
Time: 20:59:58
(UTC+00:00)

O/OREOS (USA 219) - Pass Details

Date: 29 July 2019
Orbit: 621 x 646 km, 72.0° (Epoch: 22 May)

Event Time Altitude Azimuth Distance (km) Brightness Sun altitude
Exits shadow 03:04:39 12° 211° (SSW) 1,915 ? -9.3°
Maximum altitude 03:08:55 82° 299° (WNW) 650 ? -8.8°
Drops below altitude 10° 03:13:29 10° 27° (NNE) 2,026 ? -8.3°
Sets 03:15:45 0° 29° (NNE) 2,934 ? -8.1°
